Diboll, TX

11:33 AM CST on January 24, 2017 (GMT -0600)
Angelina County

Weather History for KLFK - August, 2013

Change the Weather History Date:

Thursday, August 1, 2013

  Actual Average Record
Temperature  
Mean Temperature 87 °F 83 °F  
Max Temperature 99 °F 94 °F 107 °F (1998)
Min Temperature 75 °F 72 °F 64 °F (1936)
Degree Days  
Heating Degree Days 0 0  
Month to date heating degree days 0 0  
Since 1 June heating degree days 0 0  
Since 1 July heating degree days 0 0  
Cooling Degree Days 22 18  
Month to date cooling degree days 22 18  
Year to date cooling degree days 1595 1489  
Since 1 June cooling degree days 1081 1020  
Growing Degree Days 36 (Base 50)    
Moisture  
Dew Point 73 °F    
Average Humidity 68    
Maximum Humidity 94    
Minimum Humidity 42    
Precipitation  
Precipitation 0.08 in 0.10 in 1.70 in (1979)
Month to date precipitation 0.08 0.10  
Year to date precipitation 24.81 27.35  
Snow  
Snow 0.00 in - - ()
Month to date snowfall 0.0  
Since 1 June snowfall 0.0  
Since 1 July snowfall 0.0  
Snow Depth 0.00 in    
Sea Level Pressure  
Sea Level Pressure 29.97 in    
Wind  
Wind Speed 3 mph (South)    
Max Wind Speed 29 mph    
Max Gust Speed 37 mph    
Visibility 10 miles    
Events Rain , Thunderstorm    
T = Trace of Precipitation, MM = Missing Value Source: NWS Daily Summary

Daily Weather History Graph

Daily Weather History Graph

Search for Another Location

Airport or City:

Trip Planner

Search our weather history database for the weather conditions in past years. The results will help you decide how hot, cold, wet, or windy it might be!

Date:

Astronomy

Aug. 01, 2013 Rise Set
Actual Time 6:35 AM CDT 8:14 PM CDT
Civil Twilight 6:09 AM CDT 8:40 PM CDT
Nautical Twilight 5:37 AM CDT 9:12 PM CDT
Astronomical Twilight 5:04 AM CDT 9:45 PM CDT
Moon 2:14 AM CDT (8/1) 4:21 PM CDT (8/1)
Length of Visible Light 14h 30m
Length of Day
13h 38m
Waning Crescent, 23% of the Moon is Illuminated
Aug 1
Waning Crescent
Aug 6
New
Aug 14
First Quarter
Aug 20
Full
Aug 28
Last Quarter

Hourly Weather History & Observations

Time (CDT) Temp. Heat Index Dew Point Humidity Pressure Visibility Wind Dir Wind Speed Gust Speed Precip Events Conditions
12:53 AM 78.1 °F - 73.0 °F 84% 29.99 in 10.0 mi Calm Calm - N/A   Clear
1:53 AM 78.1 °F - 75.0 °F 90% 29.97 in 10.0 mi SSE 4.6 mph - N/A   Clear
2:53 AM 78.1 °F - 73.9 °F 87% 29.96 in 10.0 mi SSW 3.5 mph - N/A   Clear
3:53 AM 78.1 °F - 73.9 °F 87% 29.97 in 10.0 mi Calm Calm - N/A   Clear
4:53 AM 77.0 °F - 73.9 °F 90% 29.98 in 10.0 mi Calm Calm - N/A   Clear
5:53 AM 75.9 °F - 73.0 °F 91% 29.99 in 10.0 mi Calm Calm - N/A   Clear
6:53 AM 75.9 °F - 73.0 °F 91% 30.01 in 9.0 mi Calm Calm - N/A   Clear
7:53 AM 78.1 °F - 73.0 °F 84% 30.02 in 10.0 mi Calm Calm - N/A   Partly Cloudy
8:53 AM 80.1 °F 85.1 °F 75.0 °F 85% 30.02 in 10.0 mi West 6.9 mph - N/A   Clear
9:53 AM 84.0 °F 91.2 °F 73.9 °F 72% 30.03 in 10.0 mi Variable 3.5 mph - N/A   Clear
10:53 AM 82.0 °F 88.6 °F 75.0 °F 79% 30.03 in 7.0 mi Calm Calm - 0.00 in Rain Light Rain
11:53 AM 86.0 °F 93.8 °F 73.9 °F 67% 30.02 in 10.0 mi Calm Calm - 0.00 in   Scattered Clouds
12:53 PM 91.0 °F 102.9 °F 75.9 °F 61% 30.00 in 10.0 mi WSW 5.8 mph - N/A   Clear
1:53 PM 93.9 °F 103.4 °F 73.0 °F 51% 29.98 in 10.0 mi Calm Calm - N/A   Clear
2:53 PM 95.0 °F 102.5 °F 71.1 °F 46% 29.96 in 10.0 mi South 3.5 mph - N/A   Clear
3:53 PM 97.0 °F 105.5 °F 72.0 °F 44% 29.94 in 10.0 mi South 5.8 mph - N/A   Clear
4:53 PM 98.1 °F 106.5 °F 71.1 °F 42% 29.91 in 10.0 mi Calm Calm - N/A   Partly Cloudy
5:53 PM 98.1 °F 106.5 °F 71.1 °F 42% 29.90 in 10.0 mi Calm Calm - N/A   Clear
6:53 PM 98.1 °F 106.5 °F 71.1 °F 42% 29.89 in 10.0 mi SSW 3.5 mph - N/A   Clear
7:53 PM 88.0 °F 94.7 °F 72.0 °F 59% 29.92 in 10.0 mi ENE 8.1 mph - N/A   Overcast
8:53 PM 87.1 °F 94.5 °F 73.0 °F 63% 29.91 in 10.0 mi East 3.5 mph - N/A   Clear
9:15 PM 86.0 °F 93.4 °F 73.4 °F 66% 29.94 in 10.0 mi ENE 13.8 mph 18.4 mph N/A Thunderstorm Thunderstorm
9:37 PM 78.8 °F - 73.4 °F 83% 29.96 in 3.0 mi SE 24.2 mph 34.5 mph 0.06 in Rain , Thunderstorm Thunderstorms and Rain
9:53 PM 82.0 °F 86.7 °F 72.0 °F 71% 29.94 in 10.0 mi South 15.0 mph 25.3 mph 0.08 in Rain , Thunderstorm Light Thunderstorms and Rain
10:53 PM 79.0 °F - 75.0 °F 88% 29.96 in 10.0 mi SSE 6.9 mph - 0.00 in Thunderstorm Mostly Cloudy
11:00 PM 78.8 °F - 75.2 °F 89% 29.97 in 10.0 mi SSE 3.5 mph - N/A   Mostly Cloudy
11:53 PM 79.0 °F - 73.9 °F 84% 29.96 in 10.0 mi SW 8.1 mph - N/A   Mostly Cloudy